FW2372 Weather Reports


time (UTC)temp
F
wind
direction
speed
knots
gust
knots
rain 1hr
in
rain 24hr
in
rain mn
in
humidity
%
barometer
mb
20260505181531 70 287 3.5 10.4 0.00 0.00 0.00 61 1014.2
20260505180146 69 290 3.5 8.7 0.00 0.00 0.00 62 1014.1
20260505174531 68 287 4.3 12.2 0.00 0.00 0.00 63 1014.1
20260505173029 68 293 4.3 9.6 0.00 0.00 0.00 63 1014.1
20260505171602 68 296 4.3 10.4 0.00 0.00 0.00 63 1014.1
20260505170034 69 298 3.5 11.3 0.00 0.00 0.00 62 1014.1
20260505164534 70 312 3.5 9.6 0.00 0.00 0.00 63 1014.1
20260505160104 68 320 5.2 11.3 0.00 0.00 0.00 68 1014.0
20260505153030 65 304 2.6 6.1 0.00 0.00 0.00 77 1013.8
20260505151531 62 300 2.6 7.8 0.00 0.00 0.00 81 1013.8
20260505150104 60 330 1.7 7.0 0.00 0.00 0.00 78 1013.7
20260505124529 56 284 0.9 5.2 0.00 0.00 0.00 81 1012.4
20260505123027 57 304 0.0 1.7 0.00 0.00 0.00 81 1012.2
20260505111532 59 225 0.0 2.6 0.00 0.00 0.00 74 1011.7
20260505100037 59 255 2.6 10.4 0.00 0.00 0.00 79 1011.2
20260505094530 57 236 2.6 13.9 0.00 0.00 0.00 81 1011.1
20260505093031 57 136 0.9 5.2 0.00 0.00 0.00 80 1011.1
20260505090030 58 118 1.7 3.5 0.00 0.00 0.00 77 1010.9
20260505084603 59 109 0.9 4.3 0.00 0.00 0.00 76 1010.8
20260505083030 60 125 0.9 6.1 0.00 0.00 0.00 74 1010.8
20260505080031 62 83 0.0 2.6 0.00 0.00 0.00 69 1010.7
20260505074603 63 266 0.0 6.1 0.00 0.00 0.00 68 1010.6
20260505070032 65 236 0.9 4.3 0.00 0.00 0.00 62 1010.3
20260505064532 66 246 2.6 9.6 0.00 0.00 0.00 62 1010.2
20260505063029 66 230 2.6 7.0 0.00 0.00 0.00 61 1010.1
20260505061533 66 227 2.6 8.7 0.00 0.00 0.00 59 1010.1
20260505060104 67 250 1.7 6.1 0.00 0.00 0.00 57 1010.0
20260505053031 68 259 3.5 7.0 0.00 0.00 0.00 54 1009.6
20260505051534 69 266 4.3 11.3 0.00 0.00 0.00 53 1009.6
20260505041603 70 237 4.3 12.2 0.00 0.00 0.00 50 1009.1
20260505040042 71 245 3.5 9.6 0.00 0.00 0.00 50 1008.9
20260505034529 71 246 3.5 10.4 0.00 0.00 0.00 49 1008.6
20260505033030 72 243 4.3 12.2 0.00 0.00 0.00 49 1008.4
20260505030104 73 245 4.3 10.4 0.00 0.00 0.00 47 1008.1
20260505024531 74 243 4.3 10.4 0.00 0.00 0.00 46 1008.0
20260505021605 77 242 5.2 11.3 0.00 0.00 0.00 44 1007.8
20260505020031 78 255 3.5 8.7 0.00 0.00 0.00 43 1007.9
20260505014531 79 265 5.2 15.6 0.00 0.00 0.00 41 1007.8
20260505013031 81 258 4.3 13.0 0.00 0.00 0.00 39 1007.7
20260505011530 82 275 5.2 14.8 0.00 0.00 0.00 38 1007.7
20260505003107 84 289 6.1 12.2 0.00 0.00 0.00 39 1007.7
20260505001528 84 286 6.1 13.0 0.00 0.00 0.00 39 1007.8
20260504234531 83 294 6.1 14.8 0.00 0.00 0.00 40 1007.8
20260504233032 83 291 6.1 14.8 0.00 0.00 0.00 40 1007.7
20260504231531 83 288 6.1 16.5 0.00 0.00 0.00 40 1007.9
20260504230030 84 295 6.1 15.6 0.00 0.00 0.00 39 1008.0
20260504224533 85 298 5.2 12.2 0.00 0.00 0.00 38 1008.2
20260504223030 86 307 5.2 11.3 0.00 0.00 0.00 37 1008.4
20260504221603 86 304 4.3 10.4 0.00 0.00 0.00 38 1008.6
20260504213030 87 309 5.2 9.6 0.00 0.00 0.00 38 1009.0
20260504211532 87 317 4.3 10.4 0.00 0.00 0.00 37 1009.1
20260504210030 87 320 4.3 9.6 0.00 0.00 0.00 38 1009.3
20260504201529 86 298 3.5 7.8 0.00 0.00 0.00 40 1009.8
20260504200105 85 304 3.5 9.6 0.00 0.00 0.00 40 1009.9
20260504194531 84 300 3.5 8.7 0.00 0.00 0.00 40 1009.9
20260504193030 84 322 2.6 8.7 0.00 0.00 0.00 40 1010.0
20260504191529 84 312 2.6 9.6 0.00 0.00 0.00 41 1010.1
20260504190033 81 328 2.6 10.4 0.00 0.00 0.00 43 1010.2
20260504184531 79 321 4.3 10.4 0.00 0.00 0.00 45 1010.2
20260504183031 77 315 3.5 12.2 0.00 0.00 0.00 48 1010.2